Flag for Germany Weather past 2 weeks in Bayreuth, Bavaria, Germany

Now
45 °F

Overcast.


Feels Like: 41 °F
Forecast: 37 / 55 °F
Wind: 7 mph from North

Location: Grafenwoehr

Current Time: Oct 23, 2014 at 10:48:45 AM

Latest Report: Oct 23, 2014 at 9:58 AM


Visibility: N/A

Pressure: 30.14 "Hg

Humidity: 100%

Dew point: 45 °F

Location of BayreuthLocation

Historic Weather in Bayreuth — Graph

°F

Bayreuth temperature yesterday

Maximum temperature yesterday: 46 °F (at 11:58 PM)
Minimum temperature yesterday: 39 °F (at 8:58 AM)
Average temperature yesterday: 43 °F

Past Weeks' High & Low Weather Summary

 TemperatureHumidityPressure
High75 °F (Oct 9, 3:58 PM)100% (Oct 8, 11:58 PM)30.28 "Hg (Oct 8, 11:58 PM)
Low39 °F (Oct 22, 8:58 AM)47% (Oct 9, 3:58 PM)29.55 "Hg (Oct 21, 9:01 PM)
Average54 °F90%29.93 "Hg
* Reported Oct 8 9:58 AM — Oct 23 9:58 AM, Bayreuth, Weather by CustomWeather, © 2014

Note: Actual official high and low records may vary slightly from our data, if they occured in-between our weather recording intervals... More about our weather records

Advertising

Bayreuth weather history for previous 24 hours

 ConditionsComfort  
Time TempWeatherWind HumidityBarometerVisibility
9:58 AM
Oct 23
45 °FOvercast.7 mph100%30.14 "HgN/A
9:02 AM45 °FMostly cloudy.13 mph100%30.08 "HgN/A
8:58 AM45 °FMostly cloudy.12 mph100%30.12 "HgN/A
7:58 AM45 °FLow clouds.14 mphN/A30.09 "HgN/A
6:59 AM45 °FDrizzle. Low clouds.13 mphN/A30.02 "HgN/A
6:58 AM45 °FDrizzle. Low clouds.15 mphN/A30.06 "HgN/A
5:58 AM45 °FLight rain. Low clouds.16 mphN/A30.04 "Hg5 mi
4:58 AM45 °FDrizzle. Low clouds.20 mphN/A30.01 "HgN/A
3:58 AM46 °FLow clouds.16 mphN/A29.99 "HgN/A
2:58 AM46 °FLow clouds.15 mphN/A29.94 "HgN/A
1:58 AM46 °FLow clouds.15 mphN/A29.95 "HgN/A
12:58 AM46 °FLow clouds.9 mphN/A29.93 "HgN/A
11:58 PM
Oct 22
46 °FDrizzle. Low clouds.14 mphN/A29.91 "HgN/A
10:58 PM45 °FDrizzle. Low clouds.14 mph100%29.88 "HgN/A
9:58 PM45 °FLight rain. Low clouds.10 mph100%29.88 "HgN/A
8:58 PM43 °FLight rain. Overcast.8 mph100%29.87 "HgN/A
7:58 PM41 °FLight rain. Overcast.7 mph100%29.88 "HgN/A
6:58 PM41 °FLight rain. Overcast.9 mph100%29.88 "HgN/A
5:58 PM39 °FRain. Fog.8 mph100%29.87 "Hg5 mi
4:58 PM41 °FLight rain. Mostly cloudy.9 mph100%29.87 "HgN/A
3:58 PM43 °FLight rain. Overcast.15 mph93%29.86 "HgN/A
2:58 PM43 °FDrizzle. Overcast.13 mph92%29.87 "HgN/A
2:03 PM43 °FMostly cloudy.13 mph93%29.84 "HgN/A
1:58 PM43 °FLight rain. Mostly cloudy.15 mph93%29.86 "HgN/A
1:00 PM43 °FOvercast.15 mph93%29.84 "HgN/A
12:58 PM43 °FOvercast.13 mph93%29.87 "HgN/A
12:02 PM43 °FMostly cloudy.14 mph93%29.85 "HgN/A
11:58 AM43 °FDrizzle. Mostly cloudy.14 mph100%29.88 "HgN/A
10:58 AM43 °FMostly cloudy.12 mph100%29.87 "HgN/A
Weather by CustomWeather, © 2014

See weather overviewHow to use our weather pages